Location: Glion
(46.4330°N, 6.9246°E)
Time: 16:44:06
(UTC+00:00)

SeaSat 1 - Pass Details

Date: 03 March 2021
Orbit: 744 x 747 km, 108.0° (Epoch: 22 April)

Event Time Altitude Azimuth Distance (km) Brightness Sun altitude
Rises 17:56:05 0° 36° (NE) 3,200 5.3 -6.8°
Reaches altitude 10° 17:58:35 10° 46° (NE) 2,272 4.5 -7.2°
Maximum altitude 18:03:00 33° 110° (ESE) 1,255 3.1 -8.0°
Drops below altitude 10° 18:07:24 10° 173° (S) 2,258 4.9 -8.7°
Sets 18:09:52 0° 183° (S) 3,178 5.7 -9.2°
